Year,Month,Day,Hour,Minute,Value (Times are PST for insolation in W/m^2)
2013,03,27,00,00,0.00
2013,03,27,00,01,0.00
2013,03,27,00,02,0.00
2013,03,27,00,03,0.00
2013,03,27,00,04,0.00
2013,03,27,00,05,0.00
2013,03,27,00,06,0.00
2013,03,27,00,07,0.00
2013,03,27,00,08,0.00
2013,03,27,00,09,0.00
2013,03,27,00,10,0.00
2013,03,27,00,11,0.00
2013,03,27,00,12,0.00
2013,03,27,00,13,0.00
2013,03,27,00,14,0.00
2013,03,27,00,15,0.00
2013,03,27,00,16,0.00
2013,03,27,00,17,0.00
2013,03,27,00,18,0.00
2013,03,27,00,19,0.00
2013,03,27,00,20,0.00
2013,03,27,00,21,0.00
2013,03,27,00,22,0.00
2013,03,27,00,23,0.00
2013,03,27,00,24,0.00
2013,03,27,00,25,0.00
2013,03,27,00,26,0.00
2013,03,27,00,27,0.00
2013,03,27,00,28,0.00
2013,03,27,00,29,0.00
2013,03,27,00,30,0.00
2013,03,27,00,31,0.00
2013,03,27,00,32,0.00
2013,03,27,00,33,0.00
2013,03,27,00,34,0.00
2013,03,27,00,35,0.00
2013,03,27,00,36,0.00
2013,03,27,00,37,0.00
2013,03,27,00,38,0.00
2013,03,27,00,39,0.00
2013,03,27,00,40,0.00
2013,03,27,00,41,0.00
2013,03,27,00,42,0.00
2013,03,27,00,43,0.00
2013,03,27,00,44,0.00
2013,03,27,00,45,0.00
2013,03,27,00,46,0.00
2013,03,27,00,47,0.00
2013,03,27,00,48,0.00
2013,03,27,00,49,0.00
2013,03,27,00,50,0.00
2013,03,27,00,51,0.00
2013,03,27,00,52,0.00
2013,03,27,00,53,0.00
2013,03,27,00,54,0.00
2013,03,27,00,55,0.00
2013,03,27,00,56,0.00
2013,03,27,00,57,0.00
2013,03,27,00,58,0.00
2013,03,27,00,59,0.00
2013,03,27,01,00,0.00
2013,03,27,01,01,0.00
2013,03,27,01,02,0.00
2013,03,27,01,03,0.00
2013,03,27,01,04,0.00
2013,03,27,01,05,0.00
2013,03,27,01,06,0.00
2013,03,27,01,07,0.00
2013,03,27,01,08,0.00
2013,03,27,01,09,0.00
2013,03,27,01,10,0.00
2013,03,27,01,11,0.00
2013,03,27,01,12,0.00
2013,03,27,01,13,0.00
2013,03,27,01,14,0.00
2013,03,27,01,15,0.00
2013,03,27,01,16,0.00
2013,03,27,01,17,0.00
2013,03,27,01,18,0.00
2013,03,27,01,19,0.00
2013,03,27,01,20,0.00
2013,03,27,01,21,0.00
2013,03,27,01,22,0.00
2013,03,27,01,23,0.00
2013,03,27,01,24,0.00
2013,03,27,01,25,0.00
2013,03,27,01,26,0.00
2013,03,27,01,27,0.00
2013,03,27,01,28,0.00
2013,03,27,01,29,0.00
2013,03,27,01,30,0.00
2013,03,27,01,31,0.00
2013,03,27,01,32,0.00
2013,03,27,01,33,0.00
2013,03,27,01,34,0.00
2013,03,27,01,35,0.00
2013,03,27,01,36,0.00
2013,03,27,01,37,0.00
2013,03,27,01,38,0.00
2013,03,27,01,39,0.00
2013,03,27,01,40,0.00
2013,03,27,01,41,0.00
2013,03,27,01,42,0.00
2013,03,27,01,43,0.00
2013,03,27,01,44,0.00
2013,03,27,01,45,0.00
2013,03,27,01,46,0.00
2013,03,27,01,47,0.00
2013,03,27,01,48,0.00
2013,03,27,01,49,0.00
2013,03,27,01,50,0.00
2013,03,27,01,51,0.00
2013,03,27,01,52,0.00
2013,03,27,01,53,0.00
2013,03,27,01,54,0.00
2013,03,27,01,55,0.00
2013,03,27,01,56,0.00
2013,03,27,01,57,0.00
2013,03,27,01,58,0.00
2013,03,27,01,59,0.00
2013,03,27,02,00,0.00
2013,03,27,02,01,0.00
2013,03,27,02,02,0.00
2013,03,27,02,03,0.00
2013,03,27,02,04,0.00
2013,03,27,02,05,0.00
2013,03,27,02,06,0.00
2013,03,27,02,07,0.00
2013,03,27,02,08,0.00
2013,03,27,02,09,0.00
2013,03,27,02,10,0.00
2013,03,27,02,11,0.00
2013,03,27,02,12,0.00
2013,03,27,02,13,0.00
2013,03,27,02,14,0.00
2013,03,27,02,15,0.00
2013,03,27,02,16,0.00
2013,03,27,02,17,0.00
2013,03,27,02,18,0.00
2013,03,27,02,19,0.00
2013,03,27,02,20,0.00
2013,03,27,02,21,0.00
2013,03,27,02,22,0.00
2013,03,27,02,23,0.00
2013,03,27,02,24,0.00
2013,03,27,02,25,0.00
2013,03,27,02,26,0.00
2013,03,27,02,27,0.00
2013,03,27,02,28,0.00
2013,03,27,02,29,0.00
2013,03,27,02,30,0.00
2013,03,27,02,31,0.00
2013,03,27,02,32,0.00
2013,03,27,02,33,0.00
2013,03,27,02,34,0.00
2013,03,27,02,35,0.00
2013,03,27,02,36,0.00
2013,03,27,02,37,0.00
2013,03,27,02,38,0.00
2013,03,27,02,39,0.00
2013,03,27,02,40,0.00
2013,03,27,02,41,0.00
2013,03,27,02,42,0.00
2013,03,27,02,43,0.00
2013,03,27,02,44,0.00
2013,03,27,02,45,0.00
2013,03,27,02,46,0.00
2013,03,27,02,47,0.00
2013,03,27,02,48,0.00
2013,03,27,02,49,0.00
2013,03,27,02,50,0.00
2013,03,27,02,51,0.00
2013,03,27,02,52,0.00
2013,03,27,02,53,0.00
2013,03,27,02,54,0.00
2013,03,27,02,55,0.00
2013,03,27,02,56,0.00
2013,03,27,02,57,0.00
2013,03,27,02,58,0.00
2013,03,27,02,59,0.00
2013,03,27,03,00,0.00
2013,03,27,03,01,0.00
2013,03,27,03,02,0.00
2013,03,27,03,06,0.00
2013,03,27,03,07,0.00
2013,03,27,03,08,0.00
2013,03,27,03,09,0.00
2013,03,27,03,10,0.00
2013,03,27,03,11,0.00
2013,03,27,03,12,0.00
2013,03,27,03,13,0.00
2013,03,27,03,14,0.00
2013,03,27,03,15,0.00
2013,03,27,03,16,0.00
2013,03,27,03,17,0.00
2013,03,27,03,18,0.00
2013,03,27,03,19,0.00
2013,03,27,03,20,0.00
2013,03,27,03,21,0.00
2013,03,27,03,22,0.00
2013,03,27,03,23,0.00
2013,03,27,03,24,0.00
2013,03,27,03,25,0.00
2013,03,27,03,26,0.00
2013,03,27,03,27,0.00
2013,03,27,03,28,0.00
2013,03,27,03,29,0.00
2013,03,27,03,30,0.00
2013,03,27,03,31,0.00
2013,03,27,03,32,0.00
2013,03,27,03,33,0.00
2013,03,27,03,34,0.00
2013,03,27,03,35,0.00
2013,03,27,03,36,0.00
2013,03,27,03,37,0.00
2013,03,27,03,38,0.00
2013,03,27,03,39,0.00
2013,03,27,03,40,0.00
2013,03,27,03,41,0.00
2013,03,27,03,42,0.00
2013,03,27,03,43,0.00
2013,03,27,03,44,0.00
2013,03,27,03,45,0.00
2013,03,27,03,46,0.00
2013,03,27,03,47,0.00
2013,03,27,03,48,0.00
2013,03,27,03,49,0.00
2013,03,27,03,50,0.00
2013,03,27,03,51,0.00
2013,03,27,03,52,0.00
2013,03,27,03,53,0.00
2013,03,27,03,54,0.00
2013,03,27,03,55,0.00
2013,03,27,03,56,0.00
2013,03,27,03,57,0.00
2013,03,27,03,58,0.00
2013,03,27,03,59,0.00
2013,03,27,04,00,0.00
2013,03,27,04,01,0.00
2013,03,27,04,02,0.00
2013,03,27,04,03,0.00
2013,03,27,04,04,0.00
2013,03,27,04,05,0.00
2013,03,27,04,06,0.00
2013,03,27,04,07,0.00
2013,03,27,04,08,0.00
2013,03,27,04,09,0.00
2013,03,27,04,10,0.00
2013,03,27,04,11,0.00
2013,03,27,04,12,0.00
2013,03,27,04,13,0.00
2013,03,27,04,14,0.00
2013,03,27,04,15,0.00
2013,03,27,04,16,0.00
2013,03,27,04,17,0.00
2013,03,27,04,18,0.00
2013,03,27,04,19,0.00
2013,03,27,04,20,0.00
2013,03,27,04,21,0.00
2013,03,27,04,22,0.00
2013,03,27,04,23,0.00
2013,03,27,04,24,0.00
2013,03,27,04,25,0.00
2013,03,27,04,26,0.00
2013,03,27,04,27,0.00
2013,03,27,04,28,0.00
2013,03,27,04,29,0.00
2013,03,27,04,30,0.00
2013,03,27,04,31,0.00
2013,03,27,04,32,0.00
2013,03,27,04,33,0.00
2013,03,27,04,34,0.00
2013,03,27,04,35,0.00
2013,03,27,04,36,0.00
2013,03,27,04,37,0.00
2013,03,27,04,38,0.00
2013,03,27,04,39,0.00
2013,03,27,04,40,0.00
2013,03,27,04,41,0.00
2013,03,27,04,42,0.00
2013,03,27,04,43,0.00
2013,03,27,04,44,0.00
2013,03,27,04,45,0.00
2013,03,27,04,46,0.00
2013,03,27,04,47,0.00
2013,03,27,04,48,0.00
2013,03,27,04,49,0.00
2013,03,27,04,50,0.00
2013,03,27,04,51,0.00
2013,03,27,04,52,0.00
2013,03,27,04,53,0.00
2013,03,27,04,54,0.00
2013,03,27,04,55,0.00
2013,03,27,04,56,0.00
2013,03,27,04,57,0.00
2013,03,27,04,58,0.00
2013,03,27,04,59,0.00
2013,03,27,05,00,0.00
2013,03,27,05,01,0.00
2013,03,27,05,02,0.00
2013,03,27,05,03,0.00
2013,03,27,05,04,0.00
2013,03,27,05,05,0.00
2013,03,27,05,06,0.00
2013,03,27,05,07,0.00
2013,03,27,05,08,0.00
2013,03,27,05,09,0.00
2013,03,27,05,10,0.00
2013,03,27,05,11,0.00
2013,03,27,05,12,0.00
2013,03,27,05,13,0.00
2013,03,27,05,14,0.00
2013,03,27,05,15,0.00
2013,03,27,05,16,0.00
2013,03,27,05,17,0.00
2013,03,27,05,18,0.00
2013,03,27,05,19,0.00
2013,03,27,05,20,0.00
2013,03,27,05,21,0.00
2013,03,27,05,22,0.00
2013,03,27,05,23,0.00
2013,03,27,05,24,0.00
2013,03,27,05,25,0.00
2013,03,27,05,26,0.00
2013,03,27,05,27,0.00
2013,03,27,05,28,0.00
2013,03,27,05,29,0.00
2013,03,27,05,30,0.00
2013,03,27,05,31,0.00
2013,03,27,05,32,0.00
2013,03,27,05,33,0.00
2013,03,27,05,34,0.00
2013,03,27,05,35,0.00
2013,03,27,05,36,0.00
2013,03,27,05,37,0.00
2013,03,27,05,38,0.00
2013,03,27,05,39,0.00
2013,03,27,05,40,0.00
2013,03,27,05,41,0.00
2013,03,27,05,42,0.00
2013,03,27,05,43,0.00
2013,03,27,05,44,0.00
2013,03,27,05,45,0.00
2013,03,27,05,46,0.00
2013,03,27,05,47,0.00
2013,03,27,05,48,0.00
2013,03,27,05,49,0.00
2013,03,27,05,50,0.00
2013,03,27,05,51,0.00
2013,03,27,05,52,0.00
2013,03,27,05,53,0.00
2013,03,27,05,54,0.00
2013,03,27,05,55,0.00
2013,03,27,05,56,0.00
2013,03,27,05,57,0.00
2013,03,27,05,58,0.00
2013,03,27,05,59,0.00
2013,03,27,06,00,0.00
2013,03,27,06,01,0.00
2013,03,27,06,02,0.00
2013,03,27,06,03,0.00
2013,03,27,06,04,0.00
2013,03,27,06,05,0.00
2013,03,27,06,06,0.00
2013,03,27,06,07,0.00
2013,03,27,06,08,0.00
2013,03,27,06,09,0.00
2013,03,27,06,10,0.00
2013,03,27,06,11,0.00
2013,03,27,06,12,0.00
2013,03,27,06,13,0.00
2013,03,27,06,14,0.00
2013,03,27,06,15,0.00
2013,03,27,06,16,0.00
2013,03,27,06,17,0.00
2013,03,27,06,18,0.00
2013,03,27,06,19,0.00
2013,03,27,06,20,0.00
2013,03,27,06,21,0.00
2013,03,27,06,22,0.00
2013,03,27,06,23,0.00
2013,03,27,06,24,0.00
2013,03,27,06,25,0.00
2013,03,27,06,26,0.00
2013,03,27,06,27,0.00
2013,03,27,06,28,0.00
2013,03,27,06,29,0.00
2013,03,27,06,30,0.00
2013,03,27,06,31,0.00
2013,03,27,06,32,0.00
2013,03,27,06,33,0.00
2013,03,27,06,34,0.00
2013,03,27,06,35,0.00
2013,03,27,06,36,0.00
2013,03,27,06,37,0.00
2013,03,27,06,38,0.00
2013,03,27,06,39,0.00
2013,03,27,06,40,0.00
2013,03,27,06,41,0.00
2013,03,27,06,42,0.00
2013,03,27,06,43,0.00
2013,03,27,06,44,0.00
2013,03,27,06,45,0.00
2013,03,27,06,46,0.00
2013,03,27,06,47,0.00
2013,03,27,06,48,0.00
2013,03,27,06,49,0.00
2013,03,27,06,50,0.00
2013,03,27,06,51,0.00
2013,03,27,06,52,0.00
2013,03,27,06,53,0.00
2013,03,27,06,54,0.00
2013,03,27,06,55,0.00
2013,03,27,06,56,0.00
2013,03,27,06,57,0.00
2013,03,27,06,58,0.00
2013,03,27,06,59,0.00
2013,03,27,07,00,0.00
2013,03,27,07,01,0.00
2013,03,27,07,02,0.00
2013,03,27,07,03,0.00
2013,03,27,07,04,0.00
2013,03,27,07,05,2.50
2013,03,27,07,06,5.00
2013,03,27,07,07,5.00
2013,03,27,07,08,5.00
2013,03,27,07,09,6.80
2013,03,27,07,10,7.00
2013,03,27,07,11,7.00
2013,03,27,07,12,7.60
2013,03,27,07,13,9.00
2013,03,27,07,14,9.00
2013,03,27,07,15,10.20
2013,03,27,07,16,11.00
2013,03,27,07,17,11.00
2013,03,27,07,18,11.90
2013,03,27,07,19,12.30
2013,03,27,07,20,14.00
2013,03,27,07,21,14.70
2013,03,27,07,22,16.00
2013,03,27,07,23,17.10
2013,03,27,07,24,18.00
2013,03,27,07,25,18.80
2013,03,27,07,26,19.00
2013,03,27,07,27,21.00
2013,03,27,07,28,21.30
2013,03,27,07,29,23.60
2013,03,27,07,30,25.00
2013,03,27,07,31,25.50
2013,03,27,07,32,26.00
2013,03,27,07,33,27.40
2013,03,27,07,34,29.70
2013,03,27,07,35,31.80
2013,03,27,07,36,32.10
2013,03,27,07,37,33.50
2013,03,27,07,38,35.00
2013,03,27,07,39,35.90
2013,03,27,07,40,38.10
2013,03,27,07,41,39.70
2013,03,27,07,42,40.00
2013,03,27,07,43,41.70
2013,03,27,07,44,42.00
2013,03,27,07,45,42.80
2013,03,27,07,46,46.00
2013,03,27,07,47,46.40
2013,03,27,07,48,47.00
2013,03,27,07,49,47.00
2013,03,27,07,50,48.40
2013,03,27,07,51,49.00
2013,03,27,07,52,49.00
2013,03,27,07,53,51.00
2013,03,27,07,54,51.00
2013,03,27,07,55,51.00
2013,03,27,07,56,51.00
2013,03,27,07,57,52.10
2013,03,27,07,58,53.00
2013,03,27,07,59,53.80
2013,03,27,08,00,55.70
2013,03,27,08,01,56.10
2013,03,27,08,02,58.30
2013,03,27,08,03,60.00
2013,03,27,08,04,60.70
2013,03,27,08,05,62.00
2013,03,27,08,06,62.50
2013,03,27,08,07,64.40
2013,03,27,08,08,66.60
2013,03,27,08,09,69.60
2013,03,27,08,10,69.90
2013,03,27,08,11,69.20
2013,03,27,08,12,70.00
2013,03,27,08,13,70.80
2013,03,27,08,14,72.00
2013,03,27,08,15,72.00
2013,03,27,08,16,73.40
2013,03,27,08,17,74.00
2013,03,27,08,18,75.90
2013,03,27,08,19,76.10
2013,03,27,08,20,77.50
2013,03,27,08,21,79.00
2013,03,27,08,22,79.90
2013,03,27,08,23,81.00
2013,03,27,08,24,82.30
2013,03,27,08,25,83.00
2013,03,27,08,26,83.80
2013,03,27,08,27,84.10
2013,03,27,08,28,86.30
2013,03,27,08,29,88.50
2013,03,27,08,30,90.00
2013,03,27,08,31,90.50
2013,03,27,08,32,91.00
2013,03,27,08,33,92.40
2013,03,27,08,34,94.60
2013,03,27,08,35,96.80
2013,03,27,08,36,98.00
2013,03,27,08,37,98.50
2013,03,27,08,38,100.60
2013,03,27,08,39,102.80
2013,03,27,08,40,104.60
2013,03,27,08,41,106.30
2013,03,27,08,42,108.50
2013,03,27,08,43,110.70
2013,03,27,08,44,113.10
2013,03,27,08,45,116.30
2013,03,27,08,46,118.50
2013,03,27,08,47,120.30
2013,03,27,08,48,121.90
2013,03,27,08,49,124.10
2013,03,27,08,50,126.30
2013,03,27,08,51,127.80
2013,03,27,08,52,129.80
2013,03,27,08,53,132.20
2013,03,27,08,54,134.20
2013,03,27,08,55,135.60
2013,03,27,08,56,137.00
2013,03,27,08,57,138.00
2013,03,27,08,58,140.20
2013,03,27,08,59,141.00
2013,03,27,09,00,141.80
2013,03,27,09,01,142.00
2013,03,27,09,02,142.00
2013,03,27,09,03,142.00
2013,03,27,09,04,142.00
2013,03,27,09,05,142.00
2013,03,27,09,06,142.00
2013,03,27,09,07,142.00
2013,03,27,09,08,141.30
2013,03,27,09,09,141.00
2013,03,27,09,10,141.00
2013,03,27,09,11,141.20
2013,03,27,09,12,141.20
2013,03,27,09,13,138.20
2013,03,27,09,14,137.00
2013,03,27,09,15,135.80
2013,03,27,09,16,135.00
2013,03,27,09,17,134.20
2013,03,27,09,18,132.20
2013,03,27,09,19,131.80
2013,03,27,09,20,129.60
2013,03,27,09,21,127.70
2013,03,27,09,22,126.20
2013,03,27,09,23,124.00
2013,03,27,09,24,121.70
2013,03,27,09,25,120.20
2013,03,27,09,26,120.00
2013,03,27,09,27,120.00
2013,03,27,09,28,120.00
2013,03,27,09,29,120.20
2013,03,27,09,30,121.00
2013,03,27,09,31,120.50
2013,03,27,09,32,118.90
2013,03,27,09,33,116.60
2013,03,27,09,34,114.50
2013,03,27,09,35,114.00
2013,03,27,09,36,114.00
2013,03,27,09,37,114.00
2013,03,27,09,38,115.20
2013,03,27,09,39,117.20
2013,03,27,09,40,114.30
2013,03,27,09,41,113.00
2013,03,27,09,42,120.10
2013,03,27,09,43,136.60
2013,03,27,09,44,123.80
2013,03,27,09,45,120.60
2013,03,27,09,46,118.80
2013,03,27,09,47,123.10
2013,03,27,09,48,127.00
2013,03,27,09,49,123.70
2013,03,27,09,50,120.40
2013,03,27,09,51,120.00
2013,03,27,09,52,124.20
2013,03,27,09,53,131.90
2013,03,27,09,54,136.60
2013,03,27,09,55,135.00
2013,03,27,09,56,137.80
2013,03,27,09,57,152.90
2013,03,27,09,58,193.80
2013,03,27,09,59,213.00
2013,03,27,10,00,361.80
2013,03,27,10,01,433.90
2013,03,27,10,02,425.90
2013,03,27,10,03,393.80
2013,03,27,10,04,387.30
2013,03,27,10,05,391.20
2013,03,27,10,06,400.40
2013,03,27,10,07,396.20
2013,03,27,10,08,402.30
2013,03,27,10,09,410.00
2013,03,27,10,10,425.30
2013,03,27,10,11,445.10
2013,03,27,10,12,446.50
2013,03,27,10,13,454.30
2013,03,27,10,14,447.50
2013,03,27,10,15,421.10
2013,03,27,10,16,382.30
2013,03,27,10,17,329.40
2013,03,27,10,18,388.40
2013,03,27,10,19,422.10
2013,03,27,10,20,469.60
2013,03,27,10,21,478.10
2013,03,27,10,22,489.40
2013,03,27,10,23,501.00
2013,03,27,10,24,507.20
2013,03,27,10,25,505.80
2013,03,27,10,26,507.20
2013,03,27,10,27,495.50
2013,03,27,10,28,513.60
2013,03,27,10,29,514.70
2013,03,27,10,30,495.40
2013,03,27,10,31,479.60
2013,03,27,10,32,485.60
2013,03,27,10,33,500.50
2013,03,27,10,34,497.80
2013,03,27,10,35,490.90
2013,03,27,10,36,476.60
2013,03,27,10,37,495.00
2013,03,27,10,38,508.00
2013,03,27,10,39,508.00
2013,03,27,10,40,510.40
2013,03,27,10,41,513.00
2013,03,27,10,42,503.40
2013,03,27,10,43,497.40
2013,03,27,10,44,497.00
2013,03,27,10,45,504.70
2013,03,27,10,46,476.90
2013,03,27,10,47,480.50
2013,03,27,10,48,481.80
2013,03,27,10,49,488.50
2013,03,27,10,50,490.10
2013,03,27,10,51,504.00
2013,03,27,10,52,512.30
2013,03,27,10,53,518.70
2013,03,27,10,54,520.00
2013,03,27,10,55,527.20
2013,03,27,10,56,537.00
2013,03,27,10,57,543.20
2013,03,27,10,58,538.00
2013,03,27,10,59,460.00
2013,03,27,11,00,431.50
2013,03,27,11,01,404.50
2013,03,27,11,02,377.00
2013,03,27,11,03,328.60
2013,03,27,11,04,323.00
2013,03,27,11,05,345.00
2013,03,27,11,06,409.50
2013,03,27,11,07,441.00
2013,03,27,11,08,475.30
2013,03,27,11,09,441.00
2013,03,27,11,10,400.50
2013,03,27,11,11,418.30
2013,03,27,11,12,389.30
2013,03,27,11,13,414.40
2013,03,27,11,14,418.00
2013,03,27,11,15,406.50
2013,03,27,11,16,399.20
2013,03,27,11,17,408.60
2013,03,27,11,18,399.70
2013,03,27,11,19,389.60
2013,03,27,11,20,415.40
2013,03,27,11,21,435.30
2013,03,27,11,22,449.10
2013,03,27,11,23,477.50
2013,03,27,11,24,450.60
2013,03,27,11,25,404.70
2013,03,27,11,26,398.40
2013,03,27,11,27,413.40
2013,03,27,11,28,406.80
2013,03,27,11,29,394.80
2013,03,27,11,30,388.50
2013,03,27,11,31,380.30
2013,03,27,11,32,369.00
2013,03,27,11,33,359.50
2013,03,27,11,34,353.30
2013,03,27,11,35,348.80
2013,03,27,11,36,350.80
2013,03,27,11,37,330.40
2013,03,27,11,38,320.50
2013,03,27,11,39,311.80
2013,03,27,11,40,299.50
2013,03,27,11,41,289.90
2013,03,27,11,42,281.80
2013,03,27,11,43,276.80
2013,03,27,11,44,274.20
2013,03,27,11,45,274.40
2013,03,27,11,46,277.20
2013,03,27,11,47,273.40
2013,03,27,11,48,270.80
2013,03,27,11,49,270.50
2013,03,27,11,50,276.10
2013,03,27,11,51,285.30
2013,03,27,11,52,299.20
2013,03,27,11,53,316.40
2013,03,27,11,54,338.10
2013,03,27,11,55,350.00
2013,03,27,11,56,371.50
2013,03,27,11,57,422.00
2013,03,27,11,58,403.90
2013,03,27,11,59,386.30
2013,03,27,12,00,409.10
2013,03,27,12,01,421.30
2013,03,27,12,02,422.70
2013,03,27,12,03,440.60
2013,03,27,12,04,453.50
2013,03,27,12,05,433.60
2013,03,27,12,06,434.00
2013,03,27,12,07,493.80
2013,03,27,12,08,544.70
2013,03,27,12,09,553.60
2013,03,27,12,10,508.10
2013,03,27,12,11,482.70
2013,03,27,12,12,488.80
2013,03,27,12,13,530.30
2013,03,27,12,14,519.00
2013,03,27,12,15,449.20
2013,03,27,12,16,409.50
2013,03,27,12,17,391.90
2013,03,27,12,18,379.50
2013,03,27,12,19,369.10
2013,03,27,12,20,361.20
2013,03,27,12,21,356.50
2013,03,27,12,22,354.30
2013,03,27,12,23,352.50
2013,03,27,12,24,352.00
2013,03,27,12,25,354.00
2013,03,27,12,26,359.00
2013,03,27,12,27,367.60
2013,03,27,12,28,388.00
2013,03,27,12,29,407.90
2013,03,27,12,30,457.00
2013,03,27,12,31,435.20
2013,03,27,12,32,439.50
2013,03,27,12,33,458.80
2013,03,27,12,34,472.90
2013,03,27,12,35,477.40
2013,03,27,12,36,484.10
2013,03,27,12,37,512.90
2013,03,27,12,38,503.30
2013,03,27,12,39,512.30
2013,03,27,12,40,515.50
2013,03,27,12,41,539.90
2013,03,27,12,42,582.90
2013,03,27,12,43,553.00
2013,03,27,12,44,559.20
2013,03,27,12,45,576.30
2013,03,27,12,46,559.00
2013,03,27,12,47,582.70
2013,03,27,12,48,638.00
2013,03,27,12,49,638.00
2013,03,27,12,50,625.40
2013,03,27,12,51,617.00
2013,03,27,12,52,617.00
2013,03,27,12,53,509.00
2013,03,27,12,54,495.60
2013,03,27,12,55,501.60
2013,03,27,12,56,526.20
2013,03,27,12,57,496.90
2013,03,27,12,58,501.00
2013,03,27,12,59,488.40
2013,03,27,13,00,486.30
2013,03,27,13,01,521.40
2013,03,27,13,02,498.70
2013,03,27,13,03,500.00
2013,03,27,13,04,503.80
2013,03,27,13,05,495.20
2013,03,27,13,06,496.60
2013,03,27,13,07,528.80
2013,03,27,13,08,566.20
2013,03,27,13,09,517.40
2013,03,27,13,10,487.70
2013,03,27,13,11,480.00
2013,03,27,13,12,479.40
2013,03,27,13,13,490.40
2013,03,27,13,14,512.20
2013,03,27,13,15,519.00
2013,03,27,14,01,865.00
2013,03,27,14,02,821.80
2013,03,27,14,03,724.10
2013,03,27,14,04,707.00
2013,03,27,14,05,707.00
2013,03,27,14,06,701.50
2013,03,27,14,07,694.00
2013,03,27,14,08,694.00
2013,03,27,14,09,695.50
2013,03,27,14,10,645.00
2013,03,27,14,11,585.20
2013,03,27,14,12,605.80
2013,03,27,14,13,636.50
2013,03,27,14,14,553.80
2013,03,27,14,15,558.50
2013,03,27,14,16,594.40
2013,03,27,14,17,564.70
2013,03,27,14,18,547.00
2013,03,27,14,19,547.00
2013,03,27,14,20,569.50
2013,03,27,14,21,761.00
2013,03,27,14,22,684.00
2013,03,27,14,23,566.30
2013,03,27,14,24,566.00
2013,03,27,14,25,525.60
2013,03,27,14,26,487.70
2013,03,27,14,27,459.40
2013,03,27,14,28,457.00
2013,03,27,14,29,509.30
2013,03,27,14,30,788.00
2013,03,27,14,31,788.00
2013,03,27,14,32,678.70
2013,03,27,14,33,509.20
2013,03,27,14,34,480.00
2013,03,27,14,35,614.10
2013,03,27,14,36,656.00
2013,03,27,14,37,547.70
2013,03,27,14,38,507.20
2013,03,27,14,39,561.00
2013,03,27,14,40,645.20
2013,03,27,14,41,688.10
2013,03,27,14,42,678.20
2013,03,27,14,43,637.00
2013,03,27,14,44,620.60
2013,03,27,14,45,621.00
2013,03,27,14,46,660.70
2013,03,27,14,47,638.80
2013,03,27,14,48,668.70
2013,03,27,14,49,625.60
2013,03,27,14,50,571.50
2013,03,27,14,51,630.20
2013,03,27,14,52,654.20
2013,03,27,14,53,668.20
2013,03,27,14,54,669.10
2013,03,27,14,55,687.80
2013,03,27,14,56,696.20
2013,03,27,14,57,683.00
2013,03,27,14,58,661.30
2013,03,27,14,59,660.90
2013,03,27,15,00,664.70
2013,03,27,15,01,639.20
2013,03,27,15,02,631.20
2013,03,27,15,03,588.30
2013,03,27,15,04,522.80
2013,03,27,15,05,491.20
2013,03,27,15,06,535.50
2013,03,27,15,07,547.50
2013,03,27,15,08,535.80
2013,03,27,15,09,519.20
2013,03,27,15,10,506.20
2013,03,27,15,11,485.10
2013,03,27,15,12,449.30
2013,03,27,15,13,442.00
2013,03,27,15,14,425.70
2013,03,27,15,15,434.30
2013,03,27,15,16,481.30
2013,03,27,15,17,491.50
2013,03,27,15,18,482.00
2013,03,27,15,19,469.00
2013,03,27,15,20,457.80
2013,03,27,15,21,455.10
2013,03,27,15,22,440.00
2013,03,27,15,23,456.80
2013,03,27,15,24,458.00
2013,03,27,15,25,420.20
2013,03,27,15,26,401.90
2013,03,27,15,27,366.40
2013,03,27,15,28,392.10
2013,03,27,15,29,419.90
2013,03,27,15,30,467.40
2013,03,27,15,31,489.00
2013,03,27,15,32,489.40
2013,03,27,15,33,497.10
2013,03,27,15,34,494.50
2013,03,27,15,35,505.00
2013,03,27,15,36,536.30
2013,03,27,15,37,523.00
2013,03,27,15,38,519.60
2013,03,27,15,39,497.60
2013,03,27,15,40,471.60
2013,03,27,15,41,459.60
2013,03,27,15,42,482.20
2013,03,27,15,43,461.20
2013,03,27,15,44,421.30
2013,03,27,15,45,406.90
2013,03,27,15,46,431.10
2013,03,27,15,47,453.60
2013,03,27,15,48,482.00
2013,03,27,15,49,523.60
2013,03,27,15,50,556.50
2013,03,27,15,51,563.80
2013,03,27,15,52,536.50
2013,03,27,15,53,494.80
2013,03,27,15,54,460.30
2013,03,27,15,55,405.70
2013,03,27,15,56,413.20
2013,03,27,15,57,360.40
2013,03,27,15,58,360.40
2013,03,27,15,59,367.50
2013,03,27,16,00,331.40
2013,03,27,16,01,303.50
2013,03,27,16,02,295.00
2013,03,27,16,03,310.10
2013,03,27,16,04,309.40
2013,03,27,16,05,301.90
2013,03,27,16,06,294.80
2013,03,27,16,07,277.70
2013,03,27,16,08,286.00
2013,03,27,16,09,302.40
2013,03,27,16,10,286.00
2013,03,27,16,11,278.30
2013,03,27,16,12,306.10
2013,03,27,16,13,263.20
2013,03,27,16,14,256.90
2013,03,27,16,15,251.00
2013,03,27,16,16,247.00
2013,03,27,16,17,255.00
2013,03,27,16,18,253.40
2013,03,27,16,19,242.40
2013,03,27,16,20,234.50
2013,03,27,16,21,228.60
2013,03,27,16,22,220.10
2013,03,27,16,23,217.30
2013,03,27,16,24,216.00
2013,03,27,16,25,217.10
2013,03,27,16,26,220.10
2013,03,27,16,27,233.00
2013,03,27,16,28,252.30
2013,03,27,16,29,288.50
2013,03,27,16,30,285.60
2013,03,27,16,31,254.30
2013,03,27,16,32,234.60
2013,03,27,16,33,220.50
2013,03,27,16,34,214.20
2013,03,27,16,35,211.60
2013,03,27,16,36,209.40
2013,03,27,16,37,210.80
2013,03,27,16,38,213.00
2013,03,27,16,39,213.20
2013,03,27,16,40,213.60
2013,03,27,16,41,213.00
2013,03,27,16,42,213.00
2013,03,27,16,43,211.70
2013,03,27,16,44,208.00
2013,03,27,16,45,204.40
2013,03,27,16,46,199.70
2013,03,27,16,47,194.50
2013,03,27,16,48,190.80
2013,03,27,16,49,188.00
2013,03,27,16,50,188.00
2013,03,27,16,51,183.80
2013,03,27,16,52,178.90
2013,03,27,16,53,176.40
2013,03,27,16,54,172.40
2013,03,27,16,55,171.00
2013,03,27,16,56,171.00
2013,03,27,16,57,171.30
2013,03,27,16,58,172.80
2013,03,27,16,59,175.00
2013,03,27,17,00,176.00
2013,03,27,17,01,176.00
2013,03,27,17,02,171.80
2013,03,27,17,03,173.90
2013,03,27,17,04,176.00
2013,03,27,17,05,176.50
2013,03,27,17,06,178.00
2013,03,27,17,07,178.40
2013,03,27,17,08,179.00
2013,03,27,17,09,180.40
2013,03,27,17,10,181.00
2013,03,27,17,11,181.00
2013,03,27,17,12,177.60
2013,03,27,17,13,173.60
2013,03,27,17,14,171.10
2013,03,27,17,15,167.40
2013,03,27,17,16,164.00
2013,03,27,17,17,162.40
2013,03,27,17,18,160.50
2013,03,27,17,19,158.40
2013,03,27,17,20,158.00
2013,03,27,17,21,157.80
2013,03,27,17,22,156.00
2013,03,27,17,23,155.70
2013,03,27,17,24,154.10
2013,03,27,17,25,151.90
2013,03,27,17,26,149.70
2013,03,27,17,27,146.80
2013,03,27,17,28,141.80
2013,03,27,17,29,137.10
2013,03,27,17,30,133.60
2013,03,27,17,31,130.80
2013,03,27,17,32,127.60
2013,03,27,17,33,126.10
2013,03,27,17,34,123.80
2013,03,27,17,35,120.90
2013,03,27,17,36,118.40
2013,03,27,17,37,114.40
2013,03,27,17,38,112.60
2013,03,27,17,39,108.20
2013,03,27,17,40,104.70
2013,03,27,17,41,102.40
2013,03,27,17,42,99.00
2013,03,27,17,43,96.10
2013,03,27,17,44,93.50
2013,03,27,17,45,91.30
2013,03,27,17,46,90.90
2013,03,27,17,47,90.00
2013,03,27,17,48,90.00
2013,03,27,17,49,90.00
2013,03,27,17,50,90.00
2013,03,27,17,51,90.60
2013,03,27,17,52,91.00
2013,03,27,17,53,91.00
2013,03,27,17,54,91.00
2013,03,27,17,55,93.00
2013,03,27,17,56,95.00
2013,03,27,17,57,95.60
2013,03,27,17,58,97.00
2013,03,27,17,59,97.00
2013,03,27,18,00,97.00
2013,03,27,18,01,97.00
2013,03,27,18,02,97.80
2013,03,27,18,03,98.00
2013,03,27,18,04,100.00